Theta_e
305 305 305 306 307 306 306 307 310 311 312 315 317 313 312 314 313 313 312 310 310 307 305 306 306 306 308 307 306 306 306 306 306 305 305 305 305 305 305 305 305 305 305 306 307 306 305 305 305 305 304 304 304 307 310 314 316 318 318 320 320 320 319 319 318 318 317 316 316 315 315 314 315 315 316 316 317 317 317 317 316 315 314 314 314 314 315
309 308 307 307 308 308 307 305 306 307 308 310 310 308 308 311 312 311 309 308 306 304 304 304 303 304 305 304 304 304 303 303 304 303 304 304 304 304 304 304 304 304 305 306 306 306 305 305 305 305 305 305 304 304 305 308 312 315 317 318 319 320 320 320 319 318 317 316 315 315 315 315 315 316 316 317 317 317 317 316 316 315 315 315 315 315 315
313 310 310 309 310 311 310 308 307 308 310 309 308 307 307 309 308 306 307 308 305 302 302 302 301 301 301 302 302 301 301 301 301 301 301 301 301 301 302 302 303 303 305 306 306 305 305 305 305 305 304 304 304 304 303 304 306 310 314 316 317 318 319 318 319 318 318 317 317 316 316 316 317 317 317 318 318 317 317 316 315 315 315 315 315 315 315
315 311 310 310 310 311 311 311 312 314 314 312 309 306 307 309 309 307 309 310 306 302 301 300 300 300 300 300 300 300 300 300 299 299 299 299 299 300 300 300 301 301 302 304 305 305 304 304 303 304 304 304 304 304 303 303 303 304 308 311 313 315 316 316 317 317 318 318 317 318 317 317 318 318 317 317 317 317 316 316 316 315 315 315 316 316 316
313 309 309 310 311 313 313 311 309 308 308 308 307 305 305 306 308 309 311 309 304 301 300 300 300 299 299 299 299 299 299 299 299 299 299 298 299 298 299 299 299 300 301 302 303 303 303 303 302 302 302 302 303 302 303 304 304 304 304 305 307 309 311 312 314 316 318 318 318 318 318 318 318 318 317 317 316 316 316 316 316 316 316 316 316 316 316
310 307 307 308 310 313 311 305 302 303 304 305 306 305 303 303 304 305 305 304 301 301 300 300 299 299 298 298 298 298 298 298 298 298 298 298 298 298 298 298 299 299 300 301 301 301 301 301 300 300 300 300 300 301 302 304 304 304 304 304 304 304 305 307 309 312 316 317 318 318 318 318 318 318 317 316 316 316 316 317 316 316 316 316 316 316 316
308 306 306 309 311 310 305 301 301 303 303 303 303 302 300 301 302 301 301 300 300 299 298 298 298 297 297 297 297 297 297 298 298 298 297 298 298 298 298 298 299 299 299 300 300 299 299 299 299 299 298 298 299 300 301 302 303 304 304 304 304 304 303 304 305 307 312 315 317 318 317 317 318 318 317 317 317 317 316 316 316 316 316 316 316 315 315
306 306 307 309 308 304 301 301 301 302 302 302 304 303 301 300 301 301 301 300 298 298 297 297 297 296 296 296 296 296 296 297 297 298 297 297 297 298 298 298 299 299 298 299 299 298 298 298 298 298 298 298 298 299 299 300 301 303 303 304 304 303 303 304 303 304 307 311 314 317 317 317 317 317 317 316 316 317 316 317 317 316 316 316 316 315 314
303 305 306 305 304 304 303 301 300 301 302 302 303 304 301 298 300 300 300 299 298 297 297 297 296 297 298 298 297 296 296 296 297 297 297 297 297 297 298 298 298 298 297 298 298 297 298 298 298 298 298 297 298 299 299 299 300 301 302 303 303 303 303 303 303 303 304 306 309 313 316 317 317 317 317 316 316 316 315 316 316 316 316 316 316 315 315
301 304 306 304 306 308 305 302 300 300 300 299 301 303 301 298 299 299 299 299 299 298 298 298 297 298 301 300 298 296 296 296 297 297 297 297 297 297 297 297 297 297 297 297 297 297 297 298 297 297 297 298 298 298 299 299 299 300 301 301 301 301 301 302 302 303 303 304 306 308 311 314 315 315 316 316 316 315 315 315 315 315 315 316 316 316 316
301 305 307 307 307 306 302 300 299 298 298 298 301 304 303 299 297 298 299 299 299 299 299 299 299 300 303 302 298 296 296 297 297 297 297 297 297 297 297 297 297 297 296 296 297 296 297 297 296 296 296 296 297 298 299 298 299 300 300 299 299 299 300 301 302 302 303 304 305 306 307 310 313 313 314 315 315 315 315 315 315 315 315 315 316 316 315
303 305 305 303 302 301 299 299 298 297 297 298 303 307 304 298 296 297 298 298 298 298 298 299 300 301 302 301 297 295 296 297 297 297 297 297 297 297 296 296 295 295 295 295 295 295 295 295 295 294 294 295 296 298 298 298 299 299 298 298 298 298 299 300 300 302 302 303 304 305 306 308 311 312 314 314 315 316 316 316 316 316 316 316 316 315 315
304 305 305 302 300 299 298 298 297 296 297 301 305 305 300 296 296 297 297 298 297 297 298 299 298 298 298 297 296 296 296 297 297 296 296 296 296 295 295 294 294 294 294 294 294 294 294 294 293 293 293 294 296 297 297 297 299 298 298 297 298 298 298 299 300 300 301 302 302 304 305 307 308 309 310 312 313 314 315 315 315 315 314 315 315 314 315
301 302 303 303 301 298 297 297 297 297 301 304 303 298 295 296 297 296 297 297 297 297 297 298 297 297 296 296 296 296 296 296 296 296 296 295 295 294 294 294 293 293 293 293 293 293 293 293 293 293 293 294 295 296 297 297 297 297 297 297 298 298 298 298 299 299 300 301 301 302 304 306 307 306 307 308 310 310 311 312 312 312 312 313 313 313 313
299 300 303 305 303 299 296 297 298 299 301 301 297 295 295 297 297 296 297 297 296 297 297 297 297 297 296 296 296 296 296 296 296 296 295 294 294 293 293 293 292 292 292 292 292 292 292 292 292 292 293 293 294 295 296 296 296 296 296 296 297 297 297 298 298 299 299 300 301 301 303 304 305 306 306 306 307 307 308 308 309 309 310 311 312 312 312
301 302 302 301 300 297 296 298 298 298 298 296 296 297 297 296 297 297 297 296 296 296 297 297 297 297 296 296 296 295 296 295 295 295 294 293 293 293 292 292 291 291 292 292 292 292 291 291 291 291 292 292 293 294 294 295 295 295 295 295 295 296 296 297 297 298 298 299 300 300 301 302 303 304 305 305 306 306 306 306 306 307 309 310 310 310 310
300 300 299 297 297 297 297 298 297 297 297 297 298 299 297 297 297 297 297 297 296 296 296 297 297 296 296 295 295 294 294 294 294 293 293 292 292 292 292 291 291 291 291 291 291 291 291 291 291 291 291 291 292 293 293 293 293 293 294 294 294 295 295 296 297 297 298 298 299 300 300 301 302 303 304 304 305 306 305 306 305 305 307 308 307 306 307
297 298 297 297 297 298 298 298 298 298 298 299 299 299 298 298 298 297 297 297 297 296 296 296 296 295 295 294 294 293 292 292 293 292 292 292 292 291 291 291 291 291 291 291 291 291 291 291 291 291 291 291 291 291 292 292 292 292 292 293 293 294 294 295 295 296 297 298 299 299 299 300 301 303 303 303 304 305 305 305 305 304 305 306 305 304 305
297 298 298 297 298 297 297 298 298 298 298 298 298 299 298 298 298 297 297 297 296 296 296 295 295 295 294 293 293 292 292 292 292 292 292 292 292 291 291 291 291 290 291 291 291 291 291 291 291 290 290 290 290 291 291 291 291 291 291 292 293 293 294 294 295 296 297 297 298 299 299 299 300 301 302 303 304 304 305 305 305 304 304 304 304 304 304
296 298 298 297 297 297 297 297 297 297 297 297 296 296 297 296 297 296 296 296 296 296 295 295 295 295 294 293 293 292 292 292 292 292 292 292 291 291 291 291 290 291 290 290 291 291 291 291 291 291 291 291 291 291 291 291 291 291 291 291 292 293 293 294 295 295 296 297 297 298 299 299 299 300 300 301 302 304 304 305 305 304 303 303 304 304 304
297 297 297 296 296 296 296 296 296 296 296 296 296 295 296 296 296 296 296 296 295 295 295 295 294 293 293 293 292 292 292 293 293 292 292 292 291 291 291 291 290 290 290 290 290 290 291 291 291 291 291 291 291 291 291 291 291 291 291 291 291 292 293 294 295 296 296 296 297 298 299 299 299 299 300 299 300 301 303 303 304 304 304 304 304 303 304
297 297 297 297 296 296 297 296 296 296 295 295 296 296 296 296 296 295 295 295 294 294 294 294 293 293 292 293 293 292 292 292 292 292 291 291 291 291 291 291 290 290 290 290 290 290 291 291 291 291 292 292 292 292 292 292 291 291 291 291 291 292 292 294 295 296 296 297 298 298 299 300 299 299 300 299 299 299 300 300 301 302 302 302 302 303 303
296 297 297 297 296 296 296 296 296 295 295 295 296 296 296 296 295 295 295 294 294 294 294 293 293 293 293 293 293 292 292 292 291 291 291 291 291 291 291 290 290 290 290 290 291 291 291 291 292 292 292 292 292 292 292 292 292 291 291 291 291 291 292 293 294 295 296 297 298 299 299 299 299 299 299 299 299 299 298 298 298 299 300 300 301 301 302
296 295 296 296 296 296 295 295 295 295 295 295 296 296 296 296 295 295 295 295 294 294 294 293 293 293 292 292 292 291 292 291 291 291 291 290 290 290 290 290 290 290 290 291 291 291 292 292 292 292 292 292 292 292 292 292 292 292 292 292 291 291 291 292 293 293 294 295 297 298 299 298 299 299 299 299 299 299 299 299 298 297 298 300 301 301 301
296 295 294 295 296 296 294 294 295 295 295 296 296 296 296 296 295 295 295 295 295 294 293 293 293 292 291 291 291 291 291 291 290 290 290 290 290 290 290 290 290 290 291 291 291 291 292 292 292 292 292 292 292 292 292 292 292 292 292 291 291 291 291 291 291 292 293 294 295 297 298 298 298 299 299 300 300 298 298 298 299 298 299 300 301 301 302
295 294 293 294 295 295 294 295 295 295 295 296 296 297 296 296 295 295 295 295 294 293 293 294 293 292 291 290 291 290 290 290 290 290 290 290 290 289 290 290 290 290 290 290 291 291 292 292 292 292 292 292 292 292 292 292 292 292 292 291 292 291 291 291 291 291 292 293 294 296 297 299 299 298 299 300 301 299 298 298 299 299 300 300 300 300 301
294 294 294 295 295 295 295 295 295 296 296 295 296 296 295 294 295 295 294 294 293 293 293 293 292 291 291 290 290 290 290 290 290 290 290 290 289 289 290 290 290 290 290 290 291 292 292 292 292 292 292 292 292 291 291 291 291 292 292 292 292 292 291 291 291 291 291 292 293 294 296 298 298 298 298 299 299 299 299 299 299 299 299 299 300 300 300
293 294 295 295 295 295 295 294 295 295 295 294 294 294 294 293 294 294 293 293 294 293 293 293 292 291 291 291 291 291 290 290 290 290 290 289 289 290 290 290 290 290 290 290 291 292 292 292 292 291 292 292 291 291 291 291 291 291 292 292 292 292 292 291 291 291 291 291 292 293 295 296 298 298 298 297 297 298 298 298 299 299 298 298 299 299 298
294 294 294 294 294 294 294 294 294 295 295 293 293 293 293 293 293 293 293 293 294 294 293 293 292 290 290 291 291 291 290 290 290 289 289 289 289 289 289 290 290 290 290 291 292 293 292 292 291 291 291 291 291 291 291 291 291 292 292 292 292 292 292 292 292 291 291 292 292 292 293 295 296 297 297 297 297 297 296 296 297 298 297 297 297 296 294
294 294 294 294 293 294 295 295 295 295 294 293 293 293 293 293 293 292 293 294 294 294 294 293 292 291 291 291 291 291 290 289 289 289 288 289 289 289 289 289 290 290 291 292 292 292 291 291 291 291 291 291 291 291 291 292 292 292 293 293 293 292 292 292 292 292 292 292 292 292 292 293 295 296 297 297 296 296 296 296 296 296 297 297 295 293 291
294 294 295 295 294 294 295 295 295 295 294 293 294 293 293 293 293 293 293 294 294 294 294 293 292 292 291 291 290 289 289 288 288 288 288 288 289 289 288 289 289 289 290 291 291 291 290 290 290 291 291 291 291 292 292 293 293 293 294 293 293 293 293 292 292 292 292 292 292 292 292 293 294 296 296 296 296 296 296 295 295 295 295 295 295 294 293
294 294 295 295 294 294 295 294 294 294 293 293 293 293 293 293 293 293 293 294 294 294 293 292 292 291 291 290 289 288 288 288 288 288 288 288 288 288 288 289 289 289 289 290 290 290 289 289 290 292 292 291 291 292 292 293 294 294 294 294 294 293 293 293 292 292 292 292 292 292 292 293 294 295 295 296 296 296 295 295 295 294 294 294 294 293 294
295 295 295 295 294 294 295 294 294 294 294 293 293 294 294 294 293 293 293 293 293 292 292 292 291 290 289 288 288 287 287 287 288 288 288 288 288 288 288 289 290 290 290 291 290 290 290 290 292 293 293 292 292 292 293 293 294 294 293 293 294 294 294 293 292 292 292 292 292 292 293 293 293 294 295 295 295 295 295 295 294 293 293 294 294 292 292
296 295 295 295 295 295 295 295 294 294 294 293 293 294 294 293 293 293 293 293 292 292 292 291 289 289 288 288 287 287 287 287 288 288 287 287 288 288 288 289 291 291 291 291 291 290 291 292 292 293 294 293 292 292 293 294 294 293 293 293 293 294 294 293 292 292 292 292 292 292 292 293 293 294 295 295 294 295 294 294 293 292 291 292 292 292 290
295 295 294 294 294 294 294 295 295 294 294 294 294 293 293 293 293 293 292 291 291 292 291 289 288 288 288 288 287 287 287 287 287 287 287 287 287 287 287 289 290 291 292 293 292 291 292 293 293 293 294 293 292 292 293 293 293 293 293 293 292 293 293 293 292 292 292 292 292 292 292 293 293 293 294 294 294 294 294 293 292 292 290 289 289 290 290
294 295 295 294 293 293 293 294 294 294 295 294 293 292 293 293 293 292 291 290 290 290 289 288 288 288 288 287 287 287 286 286 286 286 286 287 287 287 287 288 288 289 291 292 292 292 293 294 294 294 294 294 293 293 293 293 293 293 293 293 292 292 292 292 292 292 292 292 292 292 292 292 293 293 293 294 294 293 293 292 291 291 290 289 288 289 289
293 295 296 295 294 293 293 294 294 294 294 293 293 293 294 293 292 291 290 290 289 289 289 288 288 288 288 287 287 287 286 286 286 286 286 287 287 287 287 287 287 287 289 290 291 292 292 293 294 295 295 294 293 293 293 293 293 293 292 292 292 292 292 292 292 292 292 291 292 292 292 292 292 292 292 293 293 292 292 291 290 290 289 289 289 290 290
293 293 294 295 294 294 294 294 295 294 294 294 294 294 294 293 291 290 290 289 289 289 288 288 288 288 287 287 287 286 286 285 285 286 286 287 287 287 287 287 287 287 287 288 289 291 292 292 293 295 295 294 294 294 294 294 293 293 292 292 292 292 292 292 291 291 291 291 291 292 292 292 292 292 292 292 291 291 291 290 290 289 289 289 290 291 291
293 293 294 294 294 294 294 294 294 294 294 294 294 294 294 293 292 290 289 289 288 288 288 287 287 288 288 287 287 286 286 285 285 286 287 287 287 287 287 287 287 286 287 288 289 290 291 292 293 294 294 294 294 294 295 295 294 293 292 292 292 291 292 291 291 291 291 291 291 291 292 292 292 292 292 291 290 290 290 289 289 289 289 289 290 291 291
295 294 294 293 294 294 294 294 294 294 294 294 294 294 294 294 292 290 289 289 288 288 288 287 288 288 288 288 287 287 286 285 286 286 286 286 286 287 287 288 287 287 288 289 290 290 291 291 292 293 293 294 294 294 295 295 294 293 292 292 292 291 291 291 291 291 291 290 290 290 290 291 291 291 291 291 290 290 289 289 289 289 289 290 290 291 292
295 294 294 294 294 295 294 294 294 294 294 294 294 294 294 294 292 290 289 289 288 288 287 287 288 288 288 287 287 287 286 286 286 286 286 286 286 287 288 288 287 287 288 289 290 290 291 291 291 292 293 293 294 294 295 295 295 294 292 292 291 291 291 291 290 290 290 290 290 290 290 291 291 291 291 290 290 290 290 289 289 290 290 291 291 292 292
294 294 293 293 294 294 294 294 294 294 294 294 294 294 294 294 292 291 289 288 288 287 287 287 287 287 286 286 286 286 286 286 285 285 285 286 286 286 287 287 286 287 288 289 290 290 290 290 290 291 292 292 293 294 294 295 295 294 293 292 291 291 291 290 290 290 290 290 290 290 290 290 290 290 290 290 290 290 290 290 290 290 291 291 291 291 291
293 293 293 293 294 294 294 294 294 294 294 294 294 294 294 294 292 291 289 288 287 287 287 287 287 286 285 286 286 286 286 286 285 285 285 285 285 285 285 286 286 286 288 289 289 289 290 290 290 290 291 292 293 293 294 294 294 293 293 293 292 291 290 290 290 290 290 290 289 289 290 290 290 290 290 289 289 290 290 290 290 291 291 291 291 291 290
293 293 293 294 294 294 294 294 293 294 294 294 294 294 294 294 293 291 289 288 287 287 287 287 287 286 285 285 286 286 286 286 286 286 286 286 286 285 285 285 285 286 287 288 289 289 289 289 289 290 291 291 292 292 293 293 293 293 293 293 292 292 291 290 290 289 289 289 289 289 290 290 290 290 290 289 289 290 290 290 290 290 290 290 290 289 289
293 293 293 294 293 293 293 294 294 294 294 294 294 294 294 294 293 291 290 289 288 286 286 286 286 286 286 285 285 285 285 284 284 285 286 286 286 285 284 284 285 286 287 288 288 288 289 289 289 290 290 291 291 291 291 291 292 292 292 292 292 291 291 290 289 288 288 288 288 288 288 288 288 288 288 288 288 288 288 288 288 288 288 288 287 287 287
293 293 293 293 293 293 294 294 294 294 294 293 293 294 294 294 293 291 290 289 288 287 286 285 286 286 286 285 284 285 284 284 283 284 284 285 285 285 284 284 285 285 286 287 288 288 288 288 289 289 289 289 290 290 290 290 290 290 290 290 290 290 289 289 289 288 288 287 287 287 286 286 286 286 287 287 287 286 286 286 286 286 286 286 286 286 286
293 292 293 293 294 294 294 294 293 293 292 293 294 294 294 294 294 292 291 289 288 287 286 285 285 285 286 285 285 285 285 285 284 284 284 284 284 284 284 284 284 285 286 287 287 288 288 288 288 288 288 288 288 288 288 288 288 288 288 288 288 289 288 288 288 288 287 287 287 287 286 285 285 286 286 286 286 286 286 286 286 286 286 286 286 286 286
292 293 293 293 294 294 293 292 292 292 293 294 294 295 295 295 294 293 291 290 288 287 286 286 285 285 285 285 285 284 284 285 285 285 284 284 284 284 284 283 284 285 286 286 287 287 287 288 288 288 288 288 287 287 287 287 287 287 287 287 287 287 287 287 287 287 286 286 286 286 286 285 285 285 285 285 285 286 285 285 285 285 285 285 285 285 285
292 292 293 293 293 293 292 292 293 293 294 294 294 294 295 294 294 293 292 291 289 288 287 286 286 285 285 285 284 284 283 284 284 284 284 283 283 284 284 283 283 284 285 286 286 286 287 287 287 287 287 287 287 286 286 286 286 286 286 286 286 286 286 286 286 286 285 285 285 285 285 285 285 285 285 285 285 284 284 284 284 284 284 284 283 283 283
292 292 292 293 293 293 293 293 294 294 294 294 294 294 294 293 292 292 293 292 290 288 287 287 287 286 285 285 284 284 283 283 284 283 283 283 283 283 283 283 283 283 284 285 285 286 286 287 287 286 286 286 286 286 286 286 286 286 286 286 286 286 285 285 286 286 285 285 284 284 284 284 284 284 284 284 284 283 283 283 283 283 283 283 282 282 281
292 292 293 293 293 293 294 294 294 294 294 294 294 294 294 293 293 293 294 293 290 288 287 287 287 287 286 286 285 284 283 283 283 283 283 283 283 283 283 282 283 283 284 284 285 285 285 286 286 286 286 286 285 285 285 285 285 285 285 285 286 286 286 285 285 285 285 285 284 284 284 284 284 283 283 284 284 284 284 284 283 283 283 282 282 281 281
292 292 292 293 293 292 293 293 293 293 294 294 294 293 293 293 293 293 293 293 291 290 288 288 288 288 287 287 286 285 284 283 283 283 283 283 283 283 283 282 282 283 284 284 284 284 285 285 285 285 285 285 285 285 284 284 284 284 284 284 284 285 285 285 285 284 284 283 283 283 283 284 284 284 284 284 284 284 284 284 283 283 282 282 282 282 282
Wind_Speed
6 6 3 4 7 6 5 6 5 5 6 5 4 4 1 0 1 3 6 7 6 4 3 4 6 6 7 9 8 7 8 8 10 12 14 14 14 14 14 14 13 12 12 12 14 16 17 19 19 18 18 19 19 17 14 10 7 3 2 7 10 12 14 17 20 23 24 23 23 23 25 27 26 22 19 18 18 19 20 21 20 19 18 19 18 14 10
7 9 7 5 6 5 5 8 7 6 7 8 8 5 4 5 7 6 10 12 9 5 3 5 5 5 6 7 7 8 10 10 11 13 14 14 13 14 13 13 12 11 12 13 15 17 18 19 19 18 18 18 19 20 18 14 10 7 4 2 6 9 13 16 18 20 21 20 22 23 24 25 25 23 22 22 21 20 21 21 20 20 19 19 20 14 5
4 6 7 7 6 6 5 5 5 4 7 8 7 5 5 7 9 7 10 12 8 3 3 5 5 4 6 8 10 10 10 10 12 14 14 13 13 13 12 12 12 12 12 14 16 17 17 17 17 19 19 18 20 22 22 20 16 11 6 2 1 4 7 11 15 17 17 18 21 24 25 24 24 24 24 24 23 22 22 21 20 19 18 20 23 18 16
2 2 3 4 6 7 5 3 3 4 4 4 4 3 1 1 7 9 8 7 5 4 5 7 6 6 9 11 11 10 9 10 12 13 13 13 12 12 12 12 12 12 12 14 15 15 16 17 17 18 19 19 21 23 23 22 21 18 13 8 4 1 2 4 7 10 11 14 17 21 24 26 23 22 23 25 26 25 25 25 24 22 23 27 28 24 24
2 2 3 2 3 3 3 2 1 3 3 4 3 3 4 3 3 6 3 4 8 8 8 8 8 9 10 10 8 8 9 10 11 12 12 12 11 11 11 11 12 12 12 13 15 15 16 17 17 18 19 20 20 22 22 22 21 21 20 17 14 9 5 3 3 5 6 9 12 15 18 19 18 19 23 27 28 29 30 29 28 27 29 31 31 28 25
3 5 4 3 3 4 2 2 2 3 1 3 4 4 5 4 2 4 5 8 10 9 8 9 10 9 9 8 7 7 7 8 9 10 10 10 10 10 10 10 11 12 13 14 15 16 17 18 19 20 22 23 21 21 21 20 19 20 20 19 19 18 15 11 5 3 5 7 10 12 13 15 15 19 25 29 29 29 29 29 29 30 31 31 30 27 23
4 5 5 4 5 3 3 5 3 3 2 6 10 10 8 5 5 9 12 11 10 9 8 8 10 9 9 8 8 8 7 7 7 9 9 9 9 9 9 9 10 12 13 14 16 17 18 19 20 21 23 23 22 21 21 20 19 18 18 17 18 19 19 18 14 5 3 7 10 11 12 14 16 19 24 27 27 27 27 28 29 31 32 31 28 24 22
3 4 5 4 2 2 4 4 3 4 5 6 8 9 8 6 4 8 12 12 10 10 9 8 9 8 7 7 7 7 7 7 7 7 7 8 8 8 8 9 10 11 12 13 14 16 17 18 19 20 22 22 21 20 20 20 19 18 17 16 17 18 18 19 19 13 4 4 9 12 15 15 17 20 24 25 23 22 24 27 30 31 30 27 25 23 22
2 3 3 1 1 2 1 3 2 2 2 1 1 4 4 4 3 5 12 13 11 10 9 8 7 4 4 5 6 5 6 7 6 7 7 7 7 8 8 9 10 10 11 12 13 14 15 16 17 19 20 21 20 19 18 18 18 17 16 16 17 18 18 18 19 18 12 6 4 11 17 19 19 21 24 25 23 19 20 24 27 28 27 25 23 23 22
1 2 2 1 1 2 3 4 2 1 1 1 1 2 4 2 1 4 9 11 10 8 7 7 5 2 2 4 4 3 5 6 6 6 7 7 8 8 9 9 9 10 11 11 12 13 13 14 16 19 19 20 19 17 16 17 17 15 15 16 17 19 19 19 18 17 16 13 7 5 11 18 22 23 24 25 23 21 21 21 21 23 23 22 21 21 21
1 2 3 3 2 0 1 3 1 3 2 1 1 2 3 3 2 3 6 8 7 5 5 6 5 3 3 4 3 3 4 5 5 5 6 7 8 8 9 10 10 10 11 10 10 12 12 13 16 18 18 18 17 15 16 17 16 14 14 15 18 18 18 18 17 16 16 15 11 7 6 10 16 19 20 21 21 21 21 18 17 21 22 20 19 18 17
1 1 1 1 1 1 3 2 3 4 1 2 3 4 4 5 4 3 4 6 5 3 3 4 4 2 1 3 4 3 3 5 5 6 6 7 8 8 10 11 12 12 12 13 13 13 12 13 15 17 17 17 15 14 15 16 15 14 15 16 17 18 17 16 16 15 15 15 14 10 7 6 7 9 13 15 16 18 20 19 20 22 23 20 18 17 17
1 1 1 0 1 1 1 3 5 3 1 4 4 2 3 5 5 3 4 5 4 3 3 3 2 2 3 3 3 3 4 4 5 6 6 6 7 7 9 10 12 13 13 13 14 14 14 15 17 18 17 15 13 12 13 14 13 14 16 17 18 18 18 17 16 15 13 13 14 13 10 7 7 8 9 10 11 13 15 16 18 20 21 20 21 21 20
1 1 2 0 1 1 1 3 4 2 2 3 2 1 2 5 6 4 3 4 4 3 4 4 3 3 3 3 3 4 4 4 4 5 6 7 7 8 9 10 12 13 13 13 13 13 14 15 16 17 16 14 13 12 12 13 15 15 17 18 19 20 20 19 18 16 14 12 12 13 10 7 9 10 12 12 13 14 14 15 16 17 18 20 22 22 21
1 2 2 1 1 1 3 3 2 0 0 1 4 4 3 4 6 5 3 3 3 2 4 4 3 3 3 3 3 3 3 3 4 5 6 7 8 10 11 12 13 14 13 13 13 14 14 14 13 13 13 13 13 13 13 15 16 17 17 18 20 20 21 21 20 18 16 14 12 11 9 8 8 10 13 16 17 16 16 17 17 16 15 16 19 21 21
1 1 2 0 1 2 3 2 1 3 4 3 4 5 4 4 3 3 3 3 2 2 3 3 2 2 3 3 3 4 4 4 6 6 7 8 9 10 11 12 13 13 13 13 14 14 14 13 13 12 12 12 13 14 16 17 17 17 17 18 19 21 22 22 21 20 18 16 14 11 10 11 12 11 11 15 19 19 20 20 21 21 21 21 21 22 22
2 2 2 1 1 2 3 3 4 6 6 4 3 4 5 4 2 2 3 4 4 3 3 2 2 2 3 3 3 3 4 5 6 7 8 8 9 10 11 12 13 13 13 14 15 15 14 13 13 12 11 12 14 16 17 17 17 17 17 17 18 19 20 21 22 22 21 19 17 14 12 13 14 14 13 13 17 21 23 25 26 27 27 26 26 26 25
4 5 4 2 2 3 5 6 5 5 5 4 4 4 4 3 2 2 2 3 4 3 2 2 2 2 2 2 2 2 3 5 6 7 9 9 10 11 12 13 14 14 15 14 15 16 15 15 14 13 12 13 15 17 17 17 18 18 18 18 17 18 20 21 23 23 22 21 19 17 15 14 14 14 15 15 16 18 22 25 28 30 31 29 28 27 26
3 3 2 1 1 2 3 3 3 3 3 3 3 3 2 2 2 2 2 3 3 3 3 2 2 2 1 2 3 3 4 5 7 9 10 10 12 13 13 15 16 16 16 16 17 18 18 17 16 15 15 15 16 18 18 18 18 18 18 18 18 18 19 20 21 21 20 21 20 19 17 16 14 14 15 16 16 17 20 21 22 25 29 30 30 29 29
1 2 4 3 1 0 1 1 1 1 1 1 1 2 1 2 3 3 3 3 3 2 3 3 2 2 2 3 5 5 5 6 8 9 10 12 14 15 16 17 17 17 17 17 18 19 20 19 18 18 18 19 19 20 20 20 19 19 19 19 18 19 18 18 18 18 19 21 21 19 17 17 16 15 16 17 16 16 19 19 16 17 21 25 27 28 27
3 3 3 3 2 2 4 4 2 1 1 2 2 2 2 3 3 4 4 4 3 2 2 2 1 3 4 5 6 6 7 8 9 10 12 14 15 16 17 17 16 17 17 18 18 20 20 19 19 19 20 21 21 21 21 20 19 20 20 20 20 20 19 18 18 17 17 19 20 18 17 17 16 14 16 18 18 20 21 19 16 15 16 18 19 19 20
3 2 5 6 3 1 4 6 4 2 2 3 3 3 3 3 3 2 2 2 2 1 0 1 2 4 5 6 8 8 8 9 11 13 14 15 15 16 17 17 16 16 16 17 18 19 19 19 19 19 20 20 21 21 21 20 20 21 21 21 21 20 18 18 17 16 16 16 16 16 16 16 16 15 16 17 19 22 23 21 19 19 19 17 17 19 21
1 2 6 6 1 2 1 3 3 3 3 3 3 3 2 2 2 3 3 2 1 1 1 1 2 4 6 8 8 8 9 11 12 13 14 15 16 17 17 17 16 16 16 17 17 18 18 18 18 19 20 20 21 21 21 21 21 21 21 21 21 20 18 18 18 18 17 15 13 13 14 15 15 15 14 14 14 18 21 23 23 23 22 20 18 17 18
1 1 5 5 2 3 3 2 2 3 2 3 3 2 1 2 3 4 3 2 2 1 1 2 3 4 6 8 8 8 11 13 13 13 14 15 16 17 16 16 16 16 17 17 17 18 18 18 19 19 20 21 24 25 24 22 21 21 21 22 22 20 19 19 19 19 19 16 14 13 13 14 14 13 12 10 9 10 14 18 20 21 22 22 21 19 17
1 2 4 3 3 4 3 2 2 2 2 2 2 1 1 2 3 4 3 2 2 2 2 4 4 4 5 7 7 9 12 13 13 14 15 15 15 16 15 15 15 16 17 18 18 19 19 19 19 20 20 23 27 29 27 22 20 20 21 22 23 22 20 19 19 20 19 18 15 14 13 14 14 13 13 11 9 9 9 9 14 19 21 22 23 23 23
2 5 6 4 3 3 2 1 2 2 3 2 1 1 1 2 2 2 2 2 2 3 4 5 6 6 5 6 7 8 11 13 14 14 14 15 15 15 14 15 16 17 18 19 19 19 18 19 19 19 20 23 26 27 24 22 20 20 21 22 23 23 21 20 18 18 18 18 16 15 15 15 14 14 15 14 12 12 12 10 11 15 19 21 23 24 25
3 5 6 5 3 2 3 2 2 3 4 3 2 2 3 2 1 2 3 4 5 5 6 7 8 8 7 8 8 8 10 13 14 14 14 14 14 14 14 15 17 18 18 18 17 17 18 19 19 19 22 26 26 24 23 23 22 22 22 22 22 23 23 23 22 19 18 18 16 15 16 16 15 14 16 17 16 15 15 12 11 12 15 18 20 20 22
3 2 1 2 2 3 3 2 2 3 4 3 3 3 3 2 2 2 3 5 6 7 8 10 10 10 9 9 8 9 11 13 14 14 14 14 13 14 14 15 16 17 17 16 16 16 17 18 19 22 26 28 27 24 23 23 23 23 23 22 22 21 22 23 23 21 19 18 17 17 17 17 16 14 15 18 19 18 16 13 12 12 14 16 18 19 19
3 1 1 2 2 3 3 4 3 3 3 3 3 3 3 3 3 3 4 6 6 6 8 10 10 9 9 8 7 9 12 13 13 14 14 13 12 13 13 14 15 15 14 13 14 16 17 19 22 26 29 30 28 26 24 23 22 22 22 22 22 21 19 19 20 20 19 18 18 18 18 17 16 14 14 16 18 16 15 15 16 15 14 15 17 17 17
3 2 2 2 3 3 4 4 4 4 4 4 4 4 4 4 4 4 5 6 6 6 8 8 7 7 7 7 6 8 10 12 12 13 12 12 11 12 12 12 12 12 12 12 15 18 18 21 25 28 30 31 30 28 26 23 20 19 20 20 22 23 21 19 17 18 18 16 17 18 18 17 17 16 13 14 15 14 13 16 18 18 18 18 17 14 14
5 3 3 3 3 3 4 3 3 4 5 4 4 4 5 5 5 6 5 5 5 6 7 6 6 6 6 6 6 8 9 10 11 11 11 10 11 12 12 11 10 12 13 15 19 20 19 21 26 28 30 31 30 28 25 22 18 17 17 17 19 22 24 23 20 19 17 15 15 15 15 16 18 17 14 13 13 12 12 15 18 19 20 21 20 19 21
6 4 2 2 2 3 3 2 3 4 5 4 4 5 5 5 5 6 6 5 6 6 6 5 5 5 5 5 7 8 8 9 11 10 9 10 12 13 12 11 11 13 14 15 16 17 17 21 26 28 29 29 28 26 23 20 18 17 17 17 17 17 20 22 23 21 19 17 15 13 13 15 17 17 15 14 13 12 13 15 17 19 21 23 24 26 28
6 3 2 2 2 3 4 4 4 5 5 6 5 5 5 5 5 5 6 6 6 5 5 4 4 3 3 5 7 8 7 8 9 8 8 12 13 13 13 12 12 12 12 12 13 15 18 22 25 26 27 27 26 24 23 21 19 18 18 18 15 10 10 16 21 21 21 19 17 13 12 13 15 16 15 14 14 14 13 13 15 18 21 22 23 25 27
4 2 2 2 2 4 4 4 4 4 4 5 5 5 5 5 5 6 6 5 5 4 3 2 2 1 2 4 6 6 5 6 7 7 10 13 14 13 13 12 12 12 11 12 15 20 22 23 23 23 25 25 22 21 22 20 18 17 17 17 14 8 2 10 15 18 18 18 18 15 13 11 12 15 15 13 12 13 12 11 12 14 15 16 19 23 25
4 3 3 2 3 3 3 4 4 4 4 4 4 5 6 6 6 5 5 5 4 3 3 3 2 1 2 4 5 5 5 6 7 8 10 12 12 12 13 13 14 15 14 15 18 22 23 22 21 21 23 23 20 19 20 20 16 15 15 15 12 9 5 4 9 12 14 14 14 14 12 10 9 12 13 12 10 11 11 11 12 13 13 14 18 22 24
5 4 3 3 4 4 4 4 5 5 5 5 5 5 5 6 7 6 5 4 3 3 4 4 2 0 2 4 4 4 6 7 8 9 10 10 10 10 12 14 16 16 14 16 20 23 23 22 21 20 21 22 21 19 19 19 16 14 14 13 12 10 9 8 7 7 8 9 10 11 11 9 8 10 12 11 9 10 11 12 13 14 14 16 19 20 21
6 5 3 3 5 6 6 6 7 7 7 7 6 6 6 7 7 5 4 3 3 3 5 5 4 2 2 4 4 4 6 7 8 8 9 9 9 10 12 14 16 14 12 14 19 22 22 22 22 20 19 20 21 20 20 19 16 14 14 15 13 11 11 10 8 7 6 7 9 10 9 8 8 10 11 10 10 11 12 13 14 15 17 21 22 17 16
6 7 6 5 6 8 8 7 7 7 7 6 6 6 6 7 7 6 4 4 3 3 5 5 4 3 2 4 3 3 5 6 7 8 8 8 9 11 11 11 12 12 11 13 18 20 20 20 20 19 18 18 18 19 20 20 18 15 15 16 15 14 14 14 12 10 9 8 8 8 9 9 10 11 11 11 11 13 14 15 17 19 22 26 25 18 16
4 6 7 6 7 9 8 7 7 7 7 6 5 6 6 7 7 6 5 4 3 3 5 5 5 4 3 3 2 2 4 5 7 8 8 9 11 11 9 9 12 14 14 14 16 17 17 18 18 17 16 16 17 17 19 21 19 15 14 15 16 16 16 15 15 13 12 11 11 10 11 12 12 12 12 12 13 15 16 19 22 25 27 27 25 22 21
4 6 8 8 9 9 9 8 8 9 8 6 5 6 7 8 7 6 6 5 4 3 5 5 5 4 4 4 3 1 2 4 6 8 8 10 12 12 9 9 14 17 16 16 16 16 16 16 16 15 15 16 16 15 16 18 19 17 14 13 14 15 15 15 15 14 14 15 15 14 14 14 14 14 15 16 16 16 17 20 24 27 28 27 26 24 23
6 7 9 9 9 10 11 10 9 9 8 7 7 7 8 8 7 7 6 5 4 4 5 5 4 3 3 3 3 1 1 2 4 6 8 9 11 9 7 9 14 17 17 16 17 16 16 15 15 15 15 15 15 14 14 16 17 18 16 15 14 14 15 16 17 16 16 15 15 14 14 14 15 16 16 17 17 18 19 22 25 27 27 27 26 24 22
8 8 9 9 10 11 12 11 10 9 8 8 8 8 9 9 8 7 6 4 3 4 5 5 4 2 1 2 3 2 2 2 3 4 6 7 8 6 6 9 13 16 16 15 16 16 15 16 16 15 14 14 14 13 14 15 16 17 18 17 16 16 15 15 16 18 19 19 18 18 17 17 19 19 18 18 20 23 24 25 25 26 26 25 24 22 21
10 10 10 10 11 13 14 13 11 10 9 9 9 9 9 10 8 7 7 5 4 4 5 5 4 2 1 2 3 3 3 2 2 2 3 4 5 6 7 9 13 14 14 14 15 15 15 15 15 14 14 14 13 13 14 16 16 16 17 18 18 18 18 16 16 17 19 20 21 22 22 23 24 24 22 22 23 25 25 24 24 24 23 22 21 21 21
11 11 12 12 13 13 13 13 11 10 9 10 10 9 9 9 9 8 8 7 5 5 5 6 5 4 3 2 2 2 1 1 1 2 1 1 3 6 8 10 11 12 12 13 13 14 14 14 14 14 13 13 13 14 15 17 17 17 17 17 17 18 18 18 17 17 17 17 18 20 22 22 23 23 24 23 23 23 22 22 21 20 19 18 17 17 17
10 13 14 14 13 13 13 13 12 12 11 11 11 10 9 9 9 9 9 8 6 5 6 6 6 5 4 2 2 1 1 1 1 1 1 1 1 4 8 10 10 11 11 11 11 12 12 13 13 13 13 13 13 15 17 18 17 17 17 18 18 18 18 18 18 18 18 17 17 18 18 17 16 17 18 18 18 17 16 15 14 13 12 12 12 11 11
11 13 14 14 14 14 15 15 14 14 12 9 8 9 10 9 9 9 11 10 7 5 5 6 6 6 5 3 2 2 1 1 1 1 1 2 2 4 7 9 9 9 9 9 9 10 11 11 11 12 12 12 13 15 17 17 18 18 18 18 19 19 18 18 18 18 17 16 15 15 15 13 12 12 13 14 14 14 13 13 12 11 11 11 12 12 12
11 12 14 16 17 17 16 14 12 10 9 7 7 8 11 11 10 10 12 12 9 6 5 5 5 6 6 5 4 4 3 2 2 2 1 2 2 3 5 6 6 6 7 8 9 9 10 10 10 11 12 12 14 15 16 16 17 18 19 19 19 20 19 19 19 19 18 17 17 16 15 14 13 13 13 13 13 13 13 13 12 12 12 12 13 13 12
11 13 16 18 18 16 14 12 10 9 10 11 11 12 13 13 12 11 12 12 12 10 8 6 6 6 7 7 5 5 4 3 2 2 2 1 1 2 3 4 5 5 5 7 8 8 8 9 10 10 11 13 14 16 17 17 17 18 18 18 18 18 18 18 18 19 18 18 17 16 15 13 12 12 11 11 11 11 12 11 11 11 10 10 10 10 10
13 15 15 14 13 12 12 11 9 9 11 14 15 16 15 13 12 12 13 14 15 14 12 10 8 7 7 7 7 6 6 5 3 2 2 1 1 1 2 3 4 4 4 5 7 7 8 8 9 9 11 13 15 16 17 18 19 20 20 20 19 19 19 18 17 17 15 13 12 11 11 11 10 10 10 10 10 10 10 10 10 9 9 9 8 8 7
10 11 10 10 12 14 14 13 11 12 15 16 17 17 15 12 11 12 14 16 17 17 15 14 12 10 8 8 8 8 7 7 5 4 3 2 0 1 1 2 3 3 3 4 6 7 7 8 8 9 11 13 15 16 17 19 20 20 20 21 21 20 20 19 19 18 17 14 12 11 11 11 11 11 11 11 12 13 13 13 13 12 11 11 10 9 8
10 11 13 15 17 19 19 17 15 16 17 16 16 16 15 14 13 14 16 17 17 17 16 15 14 14 12 10 9 9 9 8 7 6 5 4 2 1 1 1 1 2 3 3 5 6 7 8 9 10 11 13 14 16 17 18 19 19 19 19 18 18 18 17 18 18 18 17 15 14 13 12 13 14 16 16 17 16 15 14 14 13 13 13 13 11 11
12 14 15 16 16 17 18 18 17 16 16 15 15 15 16 16 15 15 15 16 17 18 18 17 16 16 16 14 12 10 10 10 9 9 7 6 4 3 2 1 1 2 3 4 5 6 8 8 9 10 11 12 14 15 15 17 18 19 19 18 17 17 17 16 16 16 16 17 17 16 15 14 14 16 17 17 16 15 14 14 14 15 16 16 15 14 14
Wind_Direction
28 16 15 72 83 77 55 34 17 7 2 9 71 82 33 231 175 147 126 112 100 88 62 53 59 62 76 79 71 68 69 68 71 69 64 60 56 54 53 50 48 48 46 43 41 40 39 39 39 39 41 45 49 51 51 51 56 73 203 221 226 228 227 229 231 229 230 232 238 244 243 243 249 258 261 258 253 242 231 229 227 216 203 193 182 170 162
25 15 7 43 81 86 61 40 24 27 41 49 66 69 55 74 75 88 112 106 88 80 78 64 69 81 85 84 75 69 67 66 69 69 66 63 59 56 54 51 49 48 46 45 43 42 40 37 36 35 35 38 42 45 48 50 52 58 69 176 224 232 234 238 240 239 238 237 240 243 243 242 246 250 251 253 250 238 228 227 219 202 194 191 183 177 200
3 356 3 21 50 69 61 40 25 47 64 58 62 75 77 79 82 88 101 100 91 82 86 83 85 87 84 79 70 65 63 62 67 69 64 61 58 54 51 47 45 44 41 40 39 39 38 36 35 35 33 34 38 41 44 47 49 51 54 67 225 239 239 241 243 241 238 235 235 238 239 240 242 241 238 235 233 229 223 215 205 202 208 208 206 216 242
274 307 23 31 47 51 29 356 350 12 52 73 70 75 41 87 125 125 114 106 116 127 113 101 95 86 81 75 68 66 62 56 61 65 62 59 54 48 45 41 39 36 34 32 30 29 30 30 30 30 30 32 35 36 38 43 48 53 57 58 50 357 273 255 250 242 234 229 230 233 237 238 235 229 223 218 216 218 215 207 207 218 227 225 226 236 242
199 152 122 88 68 48 321 293 327 2 45 92 90 63 18 359 132 137 126 121 130 136 131 115 100 87 81 74 65 64 63 59 61 62 61 58 52 45 42 38 35 31 27 26 25 23 24 25 25 26 27 28 29 31 34 37 40 46 51 54 56 50 30 338 287 256 235 226 226 229 232 232 224 212 209 208 208 212 212 211 214 221 224 223 225 233 235
155 136 123 122 164 189 259 329 291 276 347 81 94 76 28 7 64 96 86 108 125 134 131 118 107 94 84 79 69 60 59 61 64 61 58 55 50 45 40 35 32 26 22 20 20 19 20 20 22 25 25 25 24 24 27 30 31 35 38 43 48 47 40 31 10 274 238 230 229 229 228 223 214 206 205 205 208 213 215 216 218 218 217 218 222 229 230
128 129 129 153 187 212 339 348 301 231 157 113 101 83 51 45 99 112 111 118 128 129 120 113 109 103 97 90 77 64 57 56 62 63 56 50 45 41 35 30 26 21 17 16 14 13 14 15 17 19 19 18 19 19 20 21 22 22 25 29 33 35 33 30 25 11 235 229 230 228 225 220 213 206 205 208 214 218 219 220 219 216 213 216 223 229 224
125 150 166 175 202 321 2 26 71 123 139 136 107 80 55 42 75 116 121 123 129 128 123 120 115 111 106 90 71 59 52 46 49 56 53 46 42 38 30 23 20 17 14 14 12 11 13 13 12 12 10 8 10 12 13 15 15 13 13 14 16 18 19 19 19 17 1 240 230 226 223 222 218 214 214 217 219 219 221 222 219 215 214 220 228 225 216
135 152 164 131 346 294 139 102 110 135 143 178 117 89 75 35 20 114 124 128 134 134 135 136 130 129 125 98 69 51 46 40 39 46 45 41 39 35 28 22 19 16 13 11 11 11 13 13 10 6 2 360 0 1 2 5 7 7 6 4 1 1 1 3 6 8 7 353 265 232 227 227 228 226 226 229 232 230 231 229 224 219 220 224 224 216 210
115 129 141 130 211 230 175 132 122 5 359 280 258 113 105 77 33 127 130 134 142 149 158 160 153 171 157 117 88 55 45 38 36 43 41 36 34 29 24 19 16 14 10 6 5 7 7 8 6 2 358 356 354 352 352 352 353 356 359 358 354 351 349 348 350 355 358 355 343 283 241 233 233 234 235 237 239 235 229 228 232 232 227 218 212 209 207
133 154 167 179 186 215 60 97 67 340 325 232 216 167 146 141 154 158 142 138 144 156 171 165 162 191 191 135 107 64 46 42 40 41 35 29 26 21 17 14 8 3 2 358 357 360 1 359 357 355 354 353 349 345 341 339 339 344 347 346 344 342 340 339 337 340 346 346 342 334 299 250 234 234 238 239 236 228 219 215 225 232 227 217 207 201 195
94 124 152 223 200 36 7 346 322 326 338 161 191 200 170 149 161 173 142 131 130 129 140 153 164 190 189 109 97 60 41 45 42 37 29 22 17 11 9 6 358 352 351 350 349 350 350 347 346 346 347 346 342 337 333 329 329 334 334 330 329 328 327 328 328 327 330 334 335 331 313 271 226 213 222 227 224 216 212 213 218 222 220 211 194 176 169
85 113 122 314 246 175 296 308 320 324 212 190 207 207 132 130 147 153 121 117 114 100 100 120 126 84 54 76 88 62 43 43 39 32 23 14 9 5 358 353 349 345 342 342 340 338 338 338 339 341 342 339 333 328 326 322 320 324 324 319 318 319 319 318 321 321 317 319 325 326 309 269 229 194 186 193 194 191 193 199 205 203 195 184 172 162 163
90 108 108 12 270 117 351 313 315 296 222 197 166 98 98 124 134 135 122 117 113 95 82 81 84 78 67 71 69 54 46 39 28 18 9 3 359 355 348 344 344 341 335 333 332 331 332 333 334 336 335 330 324 319 314 309 310 315 317 314 312 313 313 312 313 315 313 308 310 317 311 275 238 213 193 179 172 172 172 171 176 181 177 169 164 163 165
110 107 104 194 203 71 5 314 281 309 332 126 116 113 115 122 128 135 134 117 113 106 91 86 83 68 62 62 48 35 38 34 14 3 1 354 349 347 343 341 342 339 332 329 329 328 328 328 328 330 326 319 315 311 304 303 307 310 310 308 307 305 305 305 305 306 308 306 303 302 295 278 261 238 211 192 183 184 185 178 174 178 181 177 169 166 165
290 128 114 117 337 357 341 307 120 78 76 111 127 121 122 127 134 137 124 114 126 126 97 91 87 60 51 49 30 12 11 9 355 349 349 344 340 340 338 336 336 334 329 325 324 324 325 326 325 322 317 311 305 299 298 301 305 307 304 303 303 299 297 297 297 297 300 301 300 295 280 270 272 268 241 214 201 195 191 186 181 180 182 182 175 169 167
38 61 84 71 2 3 24 59 88 91 94 104 102 96 104 110 115 110 102 111 128 131 107 82 64 50 39 30 21 5 352 343 337 335 334 332 333 333 330 330 332 331 326 322 321 321 321 323 321 316 310 303 296 292 294 299 302 302 302 300 298 295 293 291 290 291 292 292 291 290 282 273 270 267 261 243 219 201 190 186 184 182 181 180 175 171 170
88 64 55 40 33 53 53 52 63 76 76 70 66 76 80 77 85 99 95 100 110 112 99 70 46 53 50 17 358 344 329 321 321 325 325 326 330 331 329 330 331 328 324 320 318 317 316 316 314 310 304 298 293 292 294 297 296 296 297 296 292 289 288 286 285 286 286 286 285 282 279 281 277 266 256 247 236 220 202 191 186 183 181 180 177 175 175
120 105 129 139 75 65 55 48 52 52 49 47 49 54 45 33 64 81 70 79 90 83 71 57 37 48 66 6 341 333 324 321 322 324 325 327 329 329 328 328 328 325 321 318 316 314 314 313 311 308 304 299 296 295 295 294 293 291 289 287 285 282 281 281 281 280 278 279 281 280 276 276 278 272 255 241 234 227 215 204 196 190 185 181 180 179 178
65 108 140 148 123 309 258 139 115 98 96 95 55 37 53 66 73 71 56 56 62 41 32 43 29 11 15 356 340 332 325 321 318 317 321 325 326 326 326 325 324 322 318 315 314 312 311 312 311 309 306 302 299 296 294 291 289 286 283 280 278 277 277 276 274 271 270 271 273 276 275 270 270 272 265 249 235 225 217 209 206 204 196 188 184 181 177
85 96 139 165 194 223 216 202 190 181 154 141 117 86 97 104 93 78 58 46 41 19 21 51 20 346 346 346 338 328 319 315 314 316 320 322 322 323 323 321 320 317 314 312 312 311 310 311 310 307 304 302 300 297 294 291 286 281 279 277 276 275 274 272 268 264 262 263 264 264 266 266 265 267 266 254 240 232 226 218 217 223 218 207 202 199 194
132 162 172 171 170 183 197 196 184 156 150 153 141 131 130 122 115 117 100 70 51 6 43 56 351 333 330 328 326 318 309 309 313 316 318 319 318 319 319 317 315 313 311 311 310 308 307 307 305 302 301 300 299 297 295 291 287 281 278 277 276 273 269 266 264 262 259 255 253 252 254 258 258 259 260 256 246 239 236 233 233 235 235 236 239 236 227
159 200 171 165 132 37 132 177 164 141 147 164 160 156 141 117 126 158 164 156 205 228 202 225 281 303 312 317 318 312 306 310 314 314 315 316 315 315 316 316 315 314 315 314 310 307 306 304 302 301 300 297 294 293 291 288 283 279 276 274 273 271 268 263 261 262 263 259 253 248 246 247 249 246 242 244 247 245 243 240 238 236 237 236 233 231 231
60 143 160 153 100 64 85 105 115 121 152 180 168 144 123 133 154 170 179 199 225 236 259 257 265 293 312 317 317 314 312 315 316 315 314 313 313 314 315 315 315 315 315 313 309 305 304 304 303 303 300 297 296 297 295 289 281 275 271 267 265 265 265 264 262 262 263 263 259 252 245 241 237 227 213 210 222 235 241 241 235 229 225 218 211 212 223
62 115 140 131 89 85 91 92 100 114 161 183 156 105 124 156 162 175 192 202 197 225 282 293 298 306 311 314 318 319 317 316 316 315 314 313 314 315 314 313 314 313 310 307 304 303 304 305 305 302 298 297 302 306 305 296 284 274 267 261 258 257 257 259 260 259 259 259 257 251 243 236 229 218 205 194 191 194 202 218 224 224 223 220 217 217 215
86 110 117 108 88 94 113 137 141 155 170 163 131 128 164 151 154 190 224 235 226 240 264 281 290 292 290 298 310 317 317 316 315 314 313 313 315 314 312 311 311 308 305 303 301 302 304 305 304 302 298 300 306 308 306 298 288 279 269 259 254 251 248 248 252 254 254 255 252 247 241 237 232 224 215 204 191 181 173 171 189 208 216 219 218 215 210
123 123 124 121 123 162 206 217 189 166 162 159 172 184 170 160 180 225 242 248 250 256 260 265 273 277 276 280 289 303 314 316 316 315 313 313 313 312 310 309 308 305 304 302 301 303 306 307 306 304 305 310 313 311 305 298 290 282 274 264 255 250 245 242 242 245 249 251 250 246 242 237 234 232 225 213 200 188 179 172 172 181 195 205 210 210 209
137 136 119 118 139 175 197 196 163 149 153 166 179 168 160 174 207 228 244 251 254 256 258 261 264 267 272 278 286 300 312 316 317 316 314 312 310 310 310 309 307 305 302 300 301 308 312 312 310 309 314 320 322 316 309 302 293 283 276 268 259 251 244 239 236 235 238 243 243 242 238 234 233 237 232 222 212 202 192 187 180 172 177 190 196 199 200
157 154 80 83 96 112 124 132 146 156 161 164 162 158 170 195 214 231 246 254 255 254 258 262 261 262 272 281 288 299 310 316 316 313 311 309 308 311 313 311 307 304 300 300 309 317 319 318 318 318 322 328 330 325 319 312 299 288 280 269 258 250 242 236 230 226 228 234 237 235 232 230 230 232 233 228 222 211 200 193 184 174 174 179 178 180 184
142 127 112 113 123 141 150 158 170 176 172 169 174 186 199 213 236 258 264 260 253 252 261 266 267 271 280 283 288 300 309 309 305 302 301 302 308 317 319 315 311 309 307 311 321 325 325 325 326 325 327 332 336 336 332 322 308 296 286 272 260 249 241 233 227 221 221 226 230 229 227 224 223 222 225 225 218 207 197 192 184 178 180 181 174 167 164
123 113 110 114 141 179 189 186 183 182 179 176 190 207 212 221 243 260 268 266 257 258 267 271 271 279 285 288 299 306 303 296 293 292 293 301 317 328 328 321 315 311 309 317 327 330 328 327 329 332 334 338 341 342 337 329 321 311 300 287 272 256 243 235 228 220 216 217 221 223 222 219 218 217 216 214 209 199 190 189 187 183 179 176 175 173 167
126 123 124 129 167 204 206 198 192 192 185 182 197 216 221 228 243 256 267 274 275 278 281 277 275 282 288 298 308 306 298 291 289 289 297 317 331 336 335 331 323 314 313 320 329 331 329 332 337 341 344 345 346 346 343 340 336 328 321 314 300 273 247 234 225 218 215 214 213 213 215 214 213 214 211 206 202 196 189 189 191 188 179 173 174 174 170
142 154 187 192 202 217 216 210 205 200 192 191 205 227 237 241 249 261 271 279 283 285 282 272 270 285 297 307 310 307 301 299 296 296 315 333 339 342 342 341 335 329 330 339 343 342 345 349 349 349 352 355 355 353 353 352 346 339 336 335 330 308 254 231 220 213 211 213 210 208 209 208 208 209 209 206 204 199 191 186 187 187 185 181 179 177 173
158 170 187 189 213 233 231 215 201 197 197 203 218 237 248 253 260 268 272 275 279 278 268 240 232 278 306 314 317 317 316 317 315 315 325 335 341 345 349 352 352 353 358 2 358 356 359 2 358 356 358 1 359 357 0 1 354 347 350 354 356 359 270 220 211 203 204 208 210 210 209 203 203 206 204 200 198 194 184 174 169 173 175 174 173 177 179
152 131 135 167 206 227 227 210 196 189 192 207 223 238 252 264 275 278 278 279 276 258 219 186 176 270 317 322 329 337 336 327 318 315 323 334 342 348 356 5 5 4 9 12 6 2 4 6 4 3 5 6 2 0 6 10 3 357 2 7 13 28 63 154 185 191 197 202 202 202 201 196 196 198 195 189 185 180 174 165 154 153 158 161 162 167 173
163 144 138 182 201 205 208 202 191 183 191 211 227 243 267 283 289 284 278 282 274 230 202 189 180 215 321 322 330 347 345 333 325 325 331 338 345 354 7 14 9 3 3 5 4 6 8 8 6 8 12 14 12 9 12 16 13 10 15 21 26 41 66 92 124 158 179 183 182 184 186 183 180 182 181 176 167 161 161 158 148 143 150 156 155 156 160
187 188 188 195 197 199 200 194 188 193 208 226 241 257 273 286 292 285 270 274 269 222 202 199 192 198 313 321 333 4 359 343 335 336 341 346 354 8 18 17 9 2 356 353 357 4 8 7 7 9 15 20 22 19 19 23 25 23 27 32 35 43 61 76 87 102 123 144 157 163 163 157 156 159 160 155 150 149 151 149 143 140 142 145 147 152 158
198 204 210 209 199 198 200 198 200 210 219 232 251 268 279 290 293 278 256 259 263 223 204 206 207 218 286 308 324 2 3 351 348 352 359 9 19 24 26 20 10 1 348 345 353 3 7 7 8 10 14 23 29 28 28 32 36 36 37 41 45 49 58 68 74 81 92 110 124 131 131 132 135 136 135 133 140 151 154 149 145 144 144 144 147 154 157
193 203 213 214 203 200 203 205 207 214 219 227 250 278 300 307 297 273 249 250 256 226 207 206 207 214 238 251 258 319 349 357 4 7 12 23 31 35 35 25 12 4 356 354 1 8 9 9 12 14 17 25 33 36 36 40 44 44 43 47 51 53 57 64 71 76 83 92 102 109 117 121 120 120 121 122 127 139 147 147 143 141 140 142 147 150 149
190 200 207 207 201 201 204 205 209 217 225 233 251 283 309 313 298 269 243 241 248 227 208 204 205 212 224 224 222 258 339 354 2 6 13 23 29 34 34 20 10 7 6 7 12 13 12 13 18 22 25 30 36 39 41 46 51 53 50 51 55 57 57 62 68 73 80 89 97 101 106 108 106 107 114 118 120 126 133 135 135 135 137 141 144 145 143
210 207 206 206 206 206 207 209 214 223 230 239 254 279 302 309 294 263 242 238 242 229 212 207 209 219 224 218 220 248 311 330 344 359 12 21 24 25 20 9 6 6 7 11 15 15 15 19 26 30 32 35 39 40 43 51 59 63 62 60 59 61 63 67 72 76 80 88 94 96 97 100 102 104 108 112 115 119 125 130 132 134 138 140 141 141 142
210 207 206 209 211 212 213 214 216 222 232 244 256 276 299 305 289 262 246 243 242 232 221 216 221 244 262 228 226 241 258 270 304 352 17 25 25 20 6 359 3 6 8 13 17 19 21 27 32 35 37 40 42 44 48 56 63 68 71 71 70 70 72 74 77 80 84 88 93 96 99 102 104 105 104 104 110 117 123 127 130 133 135 137 138 139 142
206 204 206 211 214 215 215 216 217 223 237 249 254 266 289 298 285 259 244 243 243 235 228 224 223 230 237 219 221 229 244 263 295 351 18 28 32 28 14 2 2 6 10 16 20 23 27 34 39 40 40 41 44 49 57 63 66 69 73 76 77 78 79 82 84 86 88 89 91 95 101 105 107 108 107 108 112 118 123 126 128 131 133 136 138 141 143
206 205 209 215 219 218 215 213 214 220 233 245 250 258 278 289 278 253 241 243 249 247 238 232 228 227 228 227 225 231 247 307 347 350 335 359 38 31 19 10 8 10 14 19 23 28 35 43 47 46 44 44 48 56 63 68 71 73 76 79 80 80 82 84 86 87 88 90 93 97 100 103 105 108 110 111 113 117 121 123 125 128 130 132 132 134 138
210 213 217 219 220 218 214 213 216 220 227 237 246 254 267 277 271 253 242 242 251 259 251 241 235 234 234 234 225 225 270 4 30 20 357 350 24 16 12 11 12 12 16 23 29 35 43 49 53 52 51 50 53 60 66 70 73 75 78 80 82 82 83 84 85 87 89 91 94 98 99 98 99 102 106 109 111 112 114 115 115 115 115 117 119 121 125
217 218 217 216 219 223 223 223 224 224 225 229 237 246 254 260 260 250 242 241 247 260 263 253 243 237 234 229 213 195 184 126 107 98 68 52 39 17 11 12 12 13 22 33 40 43 49 54 55 55 55 56 59 64 69 72 74 76 79 81 83 85 85 86 87 88 87 85 86 90 90 88 88 93 98 102 105 106 108 108 107 106 109 113 117 119 121
220 213 211 215 222 227 228 225 220 214 210 211 221 236 245 250 251 247 243 241 241 244 249 252 246 235 228 226 214 195 182 171 152 138 114 82 58 30 18 17 19 21 32 43 47 49 54 58 58 57 57 60 64 69 73 76 77 78 80 82 84 87 88 88 89 89 89 88 89 89 86 82 82 87 91 94 97 101 103 105 105 106 109 114 117 120 122
221 215 215 218 221 222 218 210 202 199 205 213 222 233 242 247 247 244 241 238 238 238 239 241 240 234 227 226 224 214 202 190 169 150 145 126 90 52 26 26 31 38 47 54 56 57 59 60 60 59 60 63 68 72 76 80 81 82 82 83 85 87 89 90 92 93 93 91 90 88 85 82 82 85 89 92 96 100 102 104 105 106 108 110 113 117 120
231 230 226 219 214 211 204 195 192 205 218 222 225 232 238 239 238 237 236 234 233 235 236 236 235 233 229 227 227 225 219 213 208 192 172 146 103 75 40 27 37 55 71 71 69 69 69 67 66 66 66 67 72 77 81 83 85 85 85 85 85 85 86 88 90 91 88 84 81 82 84 84 86 89 92 94 96 99 100 103 105 108 111 112 111 111 113
227 227 224 214 207 207 205 200 206 221 228 228 227 230 231 225 219 223 229 229 229 231 235 236 237 235 231 227 227 226 223 221 224 220 207 199 137 42 37 32 43 67 87 84 79 81 83 81 79 78 76 75 79 85 88 88 88 88 88 88 88 86 85 85 85 84 82 80 79 80 82 84 86 90 93 95 96 98 99 100 102 104 106 106 105 103 104
221 219 225 228 225 222 220 220 226 234 238 237 233 229 223 218 219 226 230 226 223 224 228 232 235 237 234 229 226 227 222 218 219 219 215 213 233 293 330 23 56 82 100 99 93 95 97 95 92 89 88 88 90 92 94 93 93 91 90 90 91 90 89 87 84 82 82 82 83 84 84 85 87 89 91 93 95 96 97 99 102 103 102 102 103 103 104
239 236 238 239 237 234 232 232 234 237 239 238 234 228 221 218 220 225 229 227 223 223 225 228 233 238 238 233 228 226 223 218 216 216 212 209 219 236 238 202 139 125 123 116 106 106 109 108 102 96 97 100 101 100 99 99 98 96 93 92 92 92 91 90 88 86 85 85 86 88 90 92 93 94 94 93 94 93 93 96 100 102 101 101 101 102 102